FW6365 Weather Reports


Display with metric or nautical units.
time (UTC)temp
F
wind
direction
speed
MPH
gust
MPH
rain 1hr
in
rain 24hr
in
rain mn
in
humidity
%
barometer
mb
20260906234550 75 303 4.0 9.0 0.00 0.00 0.00 50 1015.3
20260906234027 75 355 3.0 8.0 0.00 0.00 0.00 50 1015.3
20260906233524 75 271 4.0 8.0 0.00 0.00 0.00 50 1015.4
20260906233049 76 227 4.0 8.0 0.00 0.00 0.00 49 1015.5
20260906232524 76 220 3.0 7.0 0.00 0.00 0.00 51 1015.4
20260906232024 75 28 3.0 8.0 0.00 0.00 0.00 51 1015.3
20260906231547 75 295 3.0 14.0 0.00 0.00 0.00 51 1015.3
20260906231027 76 211 6.0 14.0 0.00 0.00 0.00 49 1015.2
20260906230528 77 146 3.0 11.0 0.00 0.00 0.00 49 1015.3
20260906230051 77 146 5.0 11.0 0.00 0.00 0.00 49 1015.3
20260906225526 76 178 2.0 9.0 0.00 0.00 0.00 50 1015.4
20260906225026 76 150 2.0 9.0 0.00 0.00 0.00 51 1015.3
20260906224555 76 171 3.0 10.0 0.00 0.00 0.00 51 1015.4
20260906224025 76 223 5.0 10.0 0.00 0.00 0.00 50 1015.4
20260906223525 77 205 3.0 9.0 0.00 0.00 0.00 51 1015.5
20260906223050 76 240 2.0 9.0 0.00 0.00 0.00 54 1015.4
20260906222524 76 254 5.0 9.0 0.00 0.00 0.00 50 1015.4
20260906222026 76 181 2.0 8.0 0.00 0.00 0.00 51 1015.4
20260906221551 76 178 1.0 6.0 0.00 0.00 0.00 52 1015.4
20260906221024 76 198 2.0 6.0 0.00 0.00 0.00 53 1015.4
20260906220527 75 0 1.0 4.0 0.00 0.00 0.00 53 1015.5
20260906220047 74 141 1.0 5.0 0.00 0.00 0.00 54 1015.4
20260906215526 73 19 1.0 5.0 0.00 0.00 0.00 55 1015.4
20260906215026 74 330 2.0 5.0 0.00 0.00 0.00 53 1015.4
20260906214553 74 309 1.0 5.0 0.00 0.00 0.00 52 1015.5
20260906214025 74 162 3.0 6.0 0.00 0.00 0.00 53 1015.5
20260906213524 74 259 1.0 12.0 0.00 0.00 0.00 54 1015.5
20260906213048 73 212 2.0 12.0 0.00 0.00 0.00 54 1015.5
20260906212524 73 234 2.0 8.0 0.00 0.00 0.00 55 1015.5
20260906212024 73 302 3.0 9.0 0.00 0.00 0.00 54 1015.6
20260906211558 74 237 2.0 9.0 0.00 0.00 0.00 53 1015.6
20260906211033 74 248 4.0 9.0 0.00 0.00 0.00 53 1015.6
20260906210525 74 201 3.0 5.0 0.00 0.00 0.00 52 1015.6
20260906210049 74 234 1.0 4.0 0.00 0.00 0.00 54 1015.6
20260906205526 74 96 1.0 8.0 0.00 0.00 0.00 53 1015.7
20260906205026 73 73 3.0 11.0 0.00 0.00 0.00 55 1015.6
20260906204553 73 105 3.0 11.0 0.00 0.00 0.00 56 1015.7
20260906204023 72 292 3.0 8.0 0.00 0.00 0.00 56 1015.8
20260906203528 72 144 4.0 8.0 0.00 0.00 0.00 54 1015.7
20260906203059 72 151 2.0 10.0 0.00 0.00 0.00 56 1015.9
20260906202525 72 15 4.0 10.0 0.00 0.00 0.00 56 1015.9
20260906202026 72 345 7.0 10.0 0.00 0.00 0.00 57 1015.9
20260906201559 72 35 3.0 6.0 0.00 0.00 0.00 57 1015.8
20260906201023 72 333 1.0 10.0 0.00 0.00 0.00 57 1015.8
20260906200527 72 315 4.0 10.0 0.00 0.00 0.00 57 1016.0
20260906200048 72 352 2.0 10.0 0.00 0.00 0.00 58 1016.0
20260906195527 72 101 4.0 9.0 0.00 0.00 0.00 56 1016.0
20260906195024 71 0 3.0 9.0 0.00 0.00 0.00 59 1016.0
20260906194602 71 326 1.0 11.0 0.00 0.00 0.00 61 1016.1
20260906194025 71 53 4.0 11.0 0.00 0.00 0.00 61 1016.2
20260906193524 71 337 1.0 9.0 0.00 0.00 0.00 62 1016.2
20260906193106 70 276 4.0 9.0 0.00 0.00 0.00 62 1016.2
20260906192523 70 17 3.0 12.0 0.00 0.00 0.00 63 1016.2
20260906192026 70 351 6.0 12.0 0.00 0.00 0.00 62 1016.3
20260906191555 70 337 1.0 10.0 0.00 0.00 0.00 65 1016.4
20260906191023 70 90 3.0 10.0 0.00 0.00 0.00 64 1016.4
20260906190526 69 350 3.0 9.0 0.00 0.00 0.00 66 1016.5
20260906190051 69 130 4.0 7.0 0.00 0.00 0.00 65 1016.5
20260906185529 69 333 1.0 9.0 0.00 0.00 0.00 67 1016.7
20260906185025 68 42 2.0 9.0 0.00 0.00 0.00 67 1016.6
20260906184550 68 338 4.0 8.0 0.00 0.00 0.00 68 1016.6
20260906184024 68 117 2.0 9.0 0.00 0.00 0.00 70 1016.6
20260906183526 67 5 3.0 9.0 0.00 0.00 0.00 69 1016.7
20260906183048 68 349 4.0 9.0 0.00 0.00 0.00 67 1016.6
20260906182526 68 320 3.0 6.0 0.00 0.00 0.00 67 1016.7
20260906182024 67 144 3.0 5.0 0.00 0.00 0.00 69 1016.7
20260906181631 67 74 2.0 5.0 0.00 0.00 0.00 71 1016.6
20260906181026 66 15 2.0 5.0 0.00 0.00 0.00 71 1016.7
20260906180524 67 53 2.0 7.0 0.00 0.00 0.00 72 1016.8
20260906180050 66 106 2.0 7.0 0.00 0.00 0.00 73 1016.7
20260906175528 66 343 3.0 8.0 0.00 0.01 0.00 74 1016.7
20260906175030 65 180 2.0 8.0 0.00 0.01 0.00 77 1016.7
20260906174551 65 310 4.0 9.0 0.00 0.01 0.00 75 1016.7
20260906174029 65 352 3.0 9.0 0.00 0.01 0.00 76 1016.7
20260906173527 64 13 2.0 9.0 0.00 0.01 0.00 77 1016.8
20260906173047 64 330 2.0 9.0 0.00 0.01 0.00 77 1016.9
20260906172522 63 21 3.0 9.0 0.00 0.01 0.00 78 1017.1
20260906172024 63 11 5.0 8.0 0.00 0.01 0.00 79 1017.1
20260906171604 63 320 3.0 7.0 0.00 0.01 0.00 80 1017.1
20260906171025 62 292 2.0 7.0 0.00 0.01 0.00 81 1017.2
20260906170524 62 346 2.0 7.0 0.00 0.01 0.00 82 1017.2
20260906170100 62 321 4.0 8.0 0.00 0.01 0.00 82 1017.1
20260906165524 62 329 3.0 8.0 0.00 0.01 0.00 83 1017.3
20260906165029 61 0 0.0 8.0 0.00 0.01 0.00 85 1017.3
20260906164549 61 346 2.0 6.0 0.00 0.01 0.00 86 1017.3
20260906164024 61 348 2.0 6.0 0.00 0.01 0.00 88 1017.4
20260906163523 60 321 3.0 8.0 0.00 0.01 0.00 90 1017.3
20260906163046 59 325 1.0 8.0 0.00 0.01 0.00 93 1017.3
20260906162526 59 42 1.0 5.0 0.00 0.01 0.00 95 1017.2
20260906162023 59 30 2.0 3.0 0.00 0.01 0.00 96 1017.2
20260906161550 59 83 0.0 2.0 0.00 0.01 0.00 97 1017.3
20260906161026 59 80 1.0 2.0 0.00 0.01 0.00 95 1017.2
20260906160525 59 0 0.0 1.0 0.00 0.01 0.00 98 1017.1
20260906160051 58 0 0.0 1.0 0.00 0.01 0.00 98 1017.1
20260906155530 58 142 0.0 0.0 0.00 0.01 0.00 98 1017.1
20260906155029 57 0 0.0 0.0 0.00 0.01 0.00 98 1017.1
20260906154547 56 0 0.0 0.0 0.00 0.01 0.00 98 1017.0
20260906154030 55 0 0.0 0.0 0.00 0.01 0.00 98 1017.0
20260906153528 55 0 0.0 1.0 0.00 0.01 0.00 99 1017.1
20260906153051 53 0 0.0 1.0 0.00 0.01 0.00 99 1017.1
20260906152528 52 159 0.0 1.0 0.00 0.01 0.00 99 1017.2
20260906152024 51 0 0.0 1.0 0.00 0.01 0.00 99 1017.1
20260906151553 51 161 0.0 1.0 0.00 0.01 0.00 99 1017.0
20260906151024 49 140 0.0 1.0 0.00 0.01 0.00 99 1017.0
20260906150524 48 0 0.0 1.0 0.00 0.01 0.00 98 1017.0
20260906150050 47 0 0.0 1.0 0.00 0.01 0.00 98 1016.9
20260906145524 47 0 0.0 0.0 0.00 0.01 0.00 98 1016.8
20260906145029 46 0 0.0 0.0 0.00 0.01 0.00 98 1016.7
20260906144609 46 0 0.0 1.0 0.00 0.01 0.00 98 1016.8
20260906144026 46 0 0.0 1.0 0.00 0.01 0.00 98 1016.9
20260906143527 46 0 0.0 0.0 0.00 0.01 0.00 98 1016.7
20260906143107 46 0 0.0 0.0 0.00 0.01 0.00 98 1016.7
20260906142524 46 0 0.0 1.0 0.00 0.01 0.00 98 1016.5
20260906142028 46 0 0.0 1.0 0.00 0.01 0.00 98 1016.6
20260906141550 45 0 0.0 0.0 0.00 0.01 0.00 98 1016.7
20260906141029 45 0 0.0 0.0 0.00 0.01 0.00 98 1016.6
20260906140525 45 0 0.0 0.0 0.00 0.01 0.00 98 1016.7
20260906140048 46 0 0.0 0.0 0.00 0.01 0.00 98 1016.6
20260906135526 46 0 0.0 0.0 0.00 0.01 0.00 98 1016.6
20260906135029 46 0 0.0 0.0 0.00 0.01 0.00 98 1016.6
20260906134553 46 0 0.0 1.0 0.00 0.01 0.00 98 1016.6
20260906134027 46 0 0.0 1.0 0.00 0.01 0.00 98 1016.7
20260906133527 46 140 0.0 1.0 0.00 0.01 0.00 98 1016.6
20260906133105 46 0 0.0 1.0 0.00 0.01 0.00 98 1016.5
20260906132523 46 0 0.0 1.0 0.00 0.01 0.00 98 1016.5
20260906132025 46 140 0.0 1.0 0.00 0.01 0.00 98 1016.5
20260906131549 46 146 0.0 1.0 0.00 0.01 0.00 98 1016.4
20260906131024 46 114 0.0 1.0 0.00 0.01 0.00 98 1016.4
20260906130525 46 0 0.0 0.0 0.00 0.01 0.00 98 1016.3
20260906130058 46 0 0.0 0.0 0.00 0.01 0.00 98 1016.3
20260906125527 46 0 0.0 0.0 0.00 0.01 0.00 98 1016.3
20260906125027 46 0 0.0 0.0 0.00 0.01 0.00 98 1016.3
20260906124555 46 0 0.0 0.0 0.00 0.01 0.00 98 1016.3
20260906124027 46 0 0.0 0.0 0.00 0.01 0.00 98 1016.5
20260906123524 46 0 0.0 1.0 0.00 0.01 0.00 98 1016.4
20260906123049 46 0 0.0 1.0 0.00 0.01 0.00 98 1016.4
20260906122527 46 0 0.0 1.0 0.00 0.01 0.00 98 1016.4
20260906122028 46 0 0.0 0.0 0.00 0.01 0.00 98 1016.5
20260906121549 47 0 0.0 0.0 0.00 0.01 0.00 98 1016.6
20260906121026 47 0 0.0 0.0 0.00 0.01 0.00 98 1016.6
20260906120526 47 0 0.0 0.0 0.00 0.01 0.00 98 1016.5
20260906120056 47 0 0.0 1.0 0.00 0.01 0.00 98 1016.5
20260906115527 47 0 0.0 1.0 0.00 0.01 0.00 98 1016.6
20260906115027 47 0 0.0 1.0 0.00 0.01 0.00 98 1016.4
20260906114558 47 0 0.0 1.0 0.00 0.01 0.00 98 1016.6
20260906114028 47 0 0.0 0.0 0.00 0.01 0.00 98 1016.6
20260906113528 47 0 0.0 0.0 0.00 0.01 0.00 98 1016.8
20260906113048 47 0 0.0 0.0 0.00 0.01 0.00 98 1016.7
20260906112524 47 0 0.0 0.0 0.00 0.01 0.00 98 1016.7
20260906112027 47 0 0.0 0.0 0.00 0.01 0.00 98 1016.8
20260906111545 47 0 0.0 0.0 0.00 0.01 0.00 98 1016.8
20260906111027 47 0 0.0 0.0 0.00 0.01 0.00 98 1017.0
20260906110527 47 0 0.0 0.0 0.00 0.01 0.00 98 1017.0
20260906110053 47 0 0.0 0.0 0.00 0.01 0.00 98 1017.0
20260906105528 47 0 0.0 1.0 0.00 0.01 0.00 98 1017.0
20260906105026 47 0 0.0 1.0 0.00 0.01 0.00 98 1017.1
20260906104558 47 0 0.0 1.0 0.00 0.01 0.00 98 1017.0
20260906104024 46 108 0.0 1.0 0.00 0.01 0.00 98 1017.0
20260906103524 46 108 0.0 1.0 0.00 0.01 0.00 98 1017.0
20260906103048 46 105 1.0 1.0 0.00 0.01 0.00 98 1016.8
20260906102524 46 115 0.0 1.0 0.00 0.01 0.00 97 1016.8
20260906102027 46 0 0.0 1.0 0.00 0.01 0.00 97 1016.7
20260906101547 46 0 0.0 1.0 0.00 0.01 0.00 97 1016.7
20260906101027 46 0 1.0 1.0 0.00 0.01 0.00 97 1016.7
20260906100529 46 0 0.0 0.0 0.00 0.01 0.00 98 1016.6
20260906100050 46 0 0.0 0.0 0.00 0.01 0.00 98 1016.7
20260906095529 46 0 0.0 1.0 0.00 0.01 0.00 98 1016.6
20260906095023 46 0 0.0 1.0 0.00 0.01 0.00 97 1016.6
20260906094605 46 115 0.0 1.0 0.00 0.01 0.00 97 1016.5
20260906094030 46 0 0.0 1.0 0.00 0.01 0.00 97 1016.5
20260906093525 46 115 0.0 1.0 0.00 0.01 0.00 97 1016.5
20260906093122 46 115 0.0 1.0 0.00 0.01 0.00 97 1016.4
20260906092529 46 115 0.0 1.0 0.00 0.01 0.00 97 1016.4
20260906092026 47 0 0.0 1.0 0.00 0.01 0.00 97 1016.4
20260906091546 46 0 0.0 1.0 0.00 0.01 0.00 98 1016.4
20260906091026 46 0 0.0 1.0 0.00 0.01 0.00 98 1016.3
20260906090530 46 152 0.0 0.0 0.00 0.01 0.00 97 1016.4
20260906090053 46 0 0.0 0.0 0.00 0.01 0.00 97 1016.6
20260906085529 46 0 0.0 0.0 0.00 0.01 0.00 98 1016.7
20260906085024 46 0 0.0 0.0 0.00 0.01 0.00 98 1016.6
20260906084549 46 0 0.0 0.0 0.00 0.01 0.00 97 1016.7
20260906084030 45 0 0.0 1.0 0.00 0.01 0.00 97 1016.8
20260906083527 46 0 0.0 2.0 0.00 0.01 0.00 97 1016.7
20260906083050 45 149 0.0 2.0 0.00 0.01 0.00 97 1016.6
20260906082527 46 165 1.0 2.0 0.00 0.01 0.00 97 1016.6
20260906082033 46 17 0.0 1.0 0.00 0.01 0.00 97 1016.5
20260906081548 46 0 0.0 1.0 0.00 0.01 0.00 97 1016.4
20260906081026 47 17 0.0 0.0 0.00 0.01 0.00 97 1016.4
20260906080526 47 0 0.0 0.0 0.00 0.01 0.00 97 1016.5
20260906080053 47 0 0.0 0.0 0.00 0.01 0.00 97 1016.5
20260906075524 47 0 0.0 0.0 0.00 0.01 0.00 97 1016.5
20260906075024 47 0 0.0 0.0 0.00 0.01 0.00 97 1016.5
20260906074554 47 0 0.0 0.0 0.00 0.01 0.00 97 1016.5
20260906074024 47 0 0.0 0.0 0.00 0.01 0.00 97 1016.6
20260906073525 47 0 0.0 0.0 0.00 0.01 0.00 97 1016.7
20260906073050 47 0 0.0 0.0 0.00 0.01 0.00 97 1016.7
20260906072526 47 0 0.0 0.0 0.00 0.01 0.00 97 1016.8
20260906072029 47 0 0.0 0.0 0.00 0.01 0.00 97 1016.8
20260906071546 48 0 0.0 0.0 0.00 0.01 0.00 97 1016.9
20260906071026 48 0 0.0 0.0 0.00 0.01 0.00 97 1016.8
20260906070525 48 0 0.0 0.0 0.00 0.01 0.00 97 1016.8
20260906070053 48 0 0.0 0.0 0.00 0.01 0.00 97 1017.0
20260906065524 48 0 0.0 0.0 0.00 0.01 0.01 97 1016.9
20260906065024 48 0 0.0 1.0 0.00 0.01 0.01 97 1016.9
20260906064548 48 0 0.0 1.0 0.00 0.01 0.01 97 1016.9
20260906064028 48 17 0.0 1.0 0.00 0.01 0.01 97 1016.8
20260906063524 48 0 0.0 0.0 0.00 0.01 0.01 96 1016.8
20260906063051 48 0 0.0 0.0 0.00 0.01 0.01 96 1016.7
20260906062528 48 0 0.0 0.0 0.00 0.01 0.01 96 1016.8
20260906062024 49 0 0.0 0.0 0.00 0.01 0.01 96 1016.7
20260906061549 49 0 0.0 0.0 0.00 0.01 0.01 96 1016.8
20260906061025 49 0 0.0 0.0 0.00 0.01 0.01 96 1016.7
20260906060528 50 0 0.0 1.0 0.00 0.01 0.01 96 1016.8
20260906060049 50 0 0.0 1.0 0.00 0.01 0.01 97 1016.8
20260906055527 50 0 0.0 1.0 0.00 0.01 0.01 97 1016.8
20260906055027 49 19 0.0 1.0 0.00 0.01 0.01 96 1016.9
20260906054602 50 306 0.0 0.0 0.00 0.01 0.01 96 1016.9
20260906054026 50 0 0.0 0.0 0.00 0.01 0.01 96 1017.0
20260906053528 50 0 0.0 0.0 0.00 0.01 0.01 96 1016.9
20260906053053 51 0 0.0 0.0 0.00 0.01 0.01 96 1017.0
20260906052524 51 0 0.0 0.0 0.00 0.01 0.01 96 1017.0
20260906052029 51 0 0.0 0.0 0.00 0.01 0.01 96 1017.0
20260906051558 51 0 0.0 0.0 0.00 0.01 0.01 96 1017.0
20260906051029 51 0 0.0 0.0 0.00 0.01 0.01 96 1017.1
20260906050527 51 0 0.0 0.0 0.00 0.01 0.01 96 1017.1
20260906050047 51 0 0.0 0.0 0.00 0.01 0.01 96 1017.0
20260906045528 51 0 0.0 0.0 0.00 0.02 0.01 96 1017.1
20260906045026 52 0 0.0 0.0 0.00 0.02 0.01 95 1017.1
20260906044557 52 0 0.0 0.0 0.00 0.02 0.01 95 1017.2
20260906044023 52 0 0.0 0.0 0.00 0.02 0.01 95 1017.1
20260906043524 52 0 0.0 0.0 0.00 0.02 0.01 95 1017.2
20260906043048 53 0 0.0 0.0 0.00 0.02 0.01 95 1017.1
20260906042523 53 0 0.0 0.0 0.00 0.02 0.01 95 1017.0
20260906042026 53 0 0.0 0.0 0.00 0.02 0.01 95 1017.0
20260906041547 53 0 0.0 1.0 0.00 0.02 0.01 95 1017.1
20260906041025 53 0 0.0 1.0 0.00 0.02 0.01 95 1017.1
20260906040527 54 306 0.0 0.0 0.00 0.02 0.01 95 1017.0
20260906040050 54 0 0.0 0.0 0.00 0.02 0.01 94 1017.0
20260906035526 54 0 0.0 0.0 0.00 0.05 0.01 94 1016.9
20260906035032 54 0 0.0 0.0 0.00 0.05 0.01 94 1016.8
20260906034554 55 0 0.0 0.0 0.00 0.05 0.01 94 1016.8
20260906034024 55 306 0.0 0.0 0.00 0.05 0.01 94 1016.7
20260906033524 55 0 0.0 0.0 0.00 0.05 0.01 94 1016.6
20260906033051 56 306 0.0 0.0 0.00 0.05 0.01 94 1016.7
20260906032525 56 0 0.0 0.0 0.00 0.05 0.01 94 1016.6
20260906032023 56 0 0.0 0.0 0.00 0.05 0.01 94 1016.6
20260906031544 56 0 0.0 0.0 0.00 0.05 0.01 93 1016.6
20260906031026 57 0 0.0 0.0 0.00 0.05 0.01 93 1016.7
20260906030526 57 0 0.0 2.0 0.00 0.05 0.01 93 1016.7
20260906030049 57 0 0.0 2.0 0.00 0.05 0.01 93 1016.7
20260906025524 58 306 1.0 2.0 0.00 0.18 0.01 92 1016.7
20260906025027 58 289 0.0 1.0 0.00 0.18 0.01 90 1016.6
20260906024551 59 289 0.0 0.0 0.00 0.18 0.01 90 1016.7
20260906024026 59 0 0.0 1.0 0.00 0.18 0.01 89 1016.7
20260906023524 59 0 0.0 1.0 0.00 0.18 0.01 89 1016.7
20260906023044 60 0 0.0 0.0 0.00 0.18 0.01 89 1016.7
20260906022528 60 0 0.0 1.0 0.00 0.18 0.01 89 1016.7
20260906022026 60 0 0.0 1.0 0.00 0.18 0.01 88 1016.7
20260906021551 61 289 0.0 1.0 0.00 0.18 0.01 86 1016.5
20260906021023 62 289 0.0 1.0 0.00 0.18 0.01 85 1016.5
20260906020524 62 289 0.0 1.0 0.00 0.18 0.01 83 1016.6
20260906020049 63 0 0.0 1.0 0.00 0.18 0.01 81 1016.6
20260906015525 63 278 0.0 2.0 0.00 0.18 0.01 82 1016.7
20260906015024 64 278 1.0 2.0 0.00 0.18 0.01 79 1016.7
20260906014620 64 276 1.0 2.0 0.00 0.18 0.01 76 1016.6
20260906014023 65 0 0.0 1.0 0.00 0.18 0.01 76 1016.6
20260906013526 65 255 0.0 2.0 0.00 0.18 0.01 76 1016.6
20260906013058 66 313 0.0 2.0 0.00 0.18 0.01 77 1016.5
20260906012526 66 314 1.0 2.0 0.00 0.18 0.01 76 1016.6
20260906012027 66 328 0.0 3.0 0.00 0.18 0.01 76 1016.6
20260906011548 66 328 1.0 3.0 0.00 0.18 0.01 75 1016.5
20260906011024 67 321 1.0 3.0 0.00 0.18 0.01 73 1016.5
20260906010525 67 321 0.0 3.0 0.00 0.18 0.01 73 1016.5
20260906010053 68 0 1.0 3.0 0.00 0.18 0.01 71 1016.6
20260906005528 69 35 1.0 3.0 0.00 0.18 0.01 69 1016.4
20260906005025 70 218 0.0 4.0 0.00 0.18 0.01 66 1016.3
20260906004544 71 109 1.0 4.0 0.00 0.18 0.01 62 1016.2
20260906004036 70 327 0.0 2.0 0.00 0.18 0.01 65 1016.2
20260906003529 69 328 1.0 2.0 0.00 0.18 0.01 65 1016.3
20260906003059 69 306 0.0 2.0 0.00 0.18 0.01 69 1016.2
20260906002523 68 0 1.0 2.0 0.00 0.18 0.01 71 1016.2
20260906002025 68 271 0.0 2.0 0.00 0.18 0.01 73 1016.3
20260906001549 68 263 0.0 3.0 0.00 0.18 0.01 71 1016.3
20260906001024 67 316 1.0 3.0 0.00 0.18 0.01 69 1016.3
20260906000529 67 0 0.0 2.0 0.00 0.18 0.01 72 1016.3
20260906000050 66 313 1.0 5.0 0.00 0.18 0.01 74 1016.4
20260905235523 66 313 3.0 5.0 0.00 0.18 0.01 71 1016.2
20260905235027 67 317 2.0 3.0 0.00 0.18 0.01 71 1016.4